Погода в Нарвике

Норвегия     68°26′18″N   17°25′37″E
темп.,
°C
ветер,
м/с
пор.,
м/с
влажн.,
%
обл.,
%
осадки,
мм/ч
давл.,
гПа
погр.,
м
7 марта, вс
вс701:00−10зюз2294100 1.0 1003151
04:00−10юз1194100 0.4 100785
07:00−9ююв119297 0.6 101069
10:00−7юз018464 0.2 101495
13:00−5зсз237866 0.3 1015466
16:00−7зсз227618 0.2 1017219
19:00−8юз118142 0.3 101872
22:00−8ююв228994 0.3 101891
8 марта, пн
пн801:00−7ююв339397 0.9 1017111
04:00−8ююв5590100 1.1 1014205
07:00−7ююв2295100 3.6 1013117
10:00−6ю2288100 0.8 1012220
13:00−5всв1195100 1.8 1012135
16:00−5вюв1194100 1.2 101293
19:00−7в3388100 1.4 101495
22:00−9в5592100 0.7 1015186
9 марта, вт
вт901:00−10в557999 0.9 1016164
04:00−11вюв4476100 0.0 1016118
07:00−13вюв457369 0.0 1017112
10:00−11вюв44710 0.0 1018156
13:00−9вюв34680 0.0 1018220
16:00−10вюв34690 0.0 1018119
19:00−13вюв44680 0.0 101899
22:00−14вюв44690 0.0 101895
10 марта, ср
ср1001:00−13вюв34703 0.0 101774
04:00−12вюв336980 0.0 101566
07:00−11вюв336644 0.0 101464
10:00−8в33660 0.0 101289
13:00−7в33670 0.0 1010103
16:00−9в44660 0.0 100788
19:00−11вюв44640 0.0 100580
22:00−10в33610 0.0 100364
11 марта, чт
чт1101:00−9в33590 0.0 100258
04:00−8юв22590 0.0 99965
07:00−7юв33610 0.0 99885
10:00−4юв22740 0.0 99631
13:00−2ююв12790 0.0 99449
16:00−4юв22720 0.0 99324
19:00−6вюв33640 0.0 99262
22:00−7вюв33620 0.0 99154